Location: Peebles
(55.6412°N, 3.1714°W)
Time: 07:25:39
(UTC+01:00)

Altair 2 - Pass Details

Date: 11 July 2022
Orbit: 702 x 2529 km, 96.4° (Epoch: 10 August)

Event Time Altitude Azimuth Distance (km) Brightness Sun altitude
Rises 03:31:32 0° 130° (SE) 5,577 11.8 -7.2°
Reaches altitude 10° 03:35:26 10° 124° (SE) 4,333 11.3 -7.0°
Maximum altitude 03:44:35 39° 62° (ENE) 2,121 10.4 -6.3°
Drops below altitude 10° 03:51:13 10° 357° (N) 3,126 11.5 -5.7°
Sets 03:53:36 0° 350° (N) 3,895 11.9 -5.5°
